Location: Oroua River
(40.4333°S, 175.4333°E)
Time: 14:49:47
(UTC+00:00)

SL-4 R/B - Pass Details

Date: 03 February 2023
Orbit: 423 x 638 km, 51.6° (Epoch: 22 March)

Event Time Altitude Azimuth Distance (km) Brightness Sun altitude
Exits shadow 14:29:44 32° 73° (ENE) 1,123 3.6 -26.9°
Drops below altitude 10° 14:33:03 10° 112° (ESE) 2,044 5.6 -26.5°
Sets 14:35:30 0° 120° (ESE) 2,942 6.7 -26.3°
